Terug naar catalogus

ATLAS 5 CENTAUR R/B

ActiefHEO
NORAD 39653·ROCKET BODY·🇺🇸 United States

Gelanceerd Apr 10, 2014 vanaf Cape Canaveral Space Force Station

Loading…

Volgende Passages (komende 24 uur)

TLE

VersSource: Space-Track

Epoch: Sep 14, 2026, 10:05 UTC

1 39653U 14020B   26257.42075931 -.00000151  00000-0  00000-0 0  9994
2 39653  10.4653 226.7281 4821894 325.8987  10.6934  1.86029366 47648

Volg ATLAS 5 CENTAUR R/B in realtime met AllMySat

Download on the App Store